This is the latest recevied weather packets stored in our database for station/object E27ASY-4. If no packets are shown the sender has not sent any weather packets the latest 10 day(s).
| Time | Temp. | Humidity | Pressure | Rain* | Wind** | Luminosity | Snow |
|---|---|---|---|---|---|---|---|
| 1777952505 | 36.11° C | 70% | 1009 hPa | - | - | 0 W/m² | - |
| 1777952183 | 35.56° C | 71% | 1009 hPa | - | - | 0 W/m² | - |
| 1777951860 | 35.56° C | 70% | 1009 hPa | - | - | 0 W/m² | - |
| 1777951539 | 35.56° C | 72% | 1009 hPa | - | - | 0 W/m² | - |
| 1777951216 | 36.11° C | 74% | 1009 hPa | - | - | 0 W/m² | - |
| 1777950894 | 35.56° C | 73% | 1009 hPa | - | - | 0 W/m² | - |
| 1777950572 | 35.56° C | 74% | 1009 hPa | - | - | 0 W/m² | - |
| 1777950250 | 35° C | 71% | 1009 hPa | - | - | 0 W/m² | - |
| 1777949929 | 35° C | 77% | 1009 hPa | - | - | 0 W/m² | - |
| 1777949607 | 35° C | 67% | 1009 hPa | - | - | 0 W/m² | - |
| 1777949285 | 34.44° C | 83% | 1009 hPa | - | - | 0 W/m² | - |
| 1777948963 | 34.44° C | 84% | 1009 hPa | - | - | 0 W/m² | - |
| 1777948640 | 34.44° C | 86% | 1009 hPa | - | - | 0 W/m² | - |
| 1777948318 | 34.44° C | 91% | 1009 hPa | - | - | 0 W/m² | - |
| 1777947997 | 34.44° C | 80% | 1009 hPa | - | - | 0 W/m² | - |
| 1777947675 | 33.89° C | 74% | 1009 hPa | - | - | 0 W/m² | - |
| 1777947352 | 33.89° C | 81% | 1009 hPa | - | - | 0 W/m² | - |
| 1777947030 | 33.33° C | 91% | 1009 hPa | - | - | 0 W/m² | - |
| 1777946708 | 33.33° C | 97% | 1009 hPa | - | - | 0 W/m² | - |
| 1777946386 | 32.78° C | 95% | 1009 hPa | - | - | 0 W/m² | - |
| 1777946064 | 32.22° C | 92% | 1009 hPa | - | - | 0 W/m² | - |
| 1777945742 | 31.67° C | 99% | 1009 hPa | - | - | 0 W/m² | - |
| 1777945420 | 30.56° C | 99% | 1009 hPa | - | - | 0 W/m² | - |
| 1777945098 | 30° C | 99% | 1009 hPa | - | - | 0 W/m² | - |
| 1777944776 | 28.89° C | 99% | 1009 hPa | - | - | 0 W/m² | - |
* Rain since midnight (hover to see other rain measurements)
** Current wind speed in m/s (hover to see current wind gust speed)